User: anonymous
Location: Caltech
(34.1382°N, 118.1253°W)
Time: 02:32:34
(UTC-07:00)
Language:

Oscar 10/S400 - Orbit

View from above orbital plane
View from above orbital plane
View from above satellite
View from above satellite

Ground track
Ground track

The orbit data is extracted from the following two-line orbital elements,

1 14129U 83058B   14258.97257267  .00000034  00000-0  00000+0 0  2153
2 14129 026.1233 200.2657 6025659 030.1027 068.5661 02.05869099207115
Epoch (UTC): 15 September 2014 23:20:30
Eccentricity: 0.6025659
inclination: 26.1233°
perigee height: 3995 km
apogee height: 35452 km
right ascension of ascending node: 200.2657°
argument of perigee: 30.1027°
revolutions per day: 2.05869099
mean anomaly at epoch: 68.5661°
orbit number at epoch: 20711

The dashed part of the orbit path shows where the satellite is in the earth's shadow,  

DLR